THOR ABLESTAR DEB, 1425

Orbit data source: Space-Track

THOR ABLESTAR DEB, 1425 is space debris in LEO originally from a launch on Thu, 24 Jun 1965 UTC launched from the Air Force Western Test Range (AFWTR). Debris objects in space refer to the collection of defunct objects orbiting the Earth. Examples of debris include non-operational satellites, rocket bodies, and fragments generated from explosions, collisions, or faulty payload assembly.

Loading next visibility...
Identifier
1425, 1965-048C
Orbit
LEO
Last TLE update
9 hours ago
Origin
Manufacturer
APL
Mission
Spacecraft
Bus & Motor
Unknown
Mass
Unknown
Launch date (UTC)
1965-06-24 (60 years ago)
Launch vehicle
Unknown
Launch site
Air Force Western Test Range (AFWTR)
Object type
Payload
Rocket body
Debris
Shape & HBR
Unknown
Radar Cross Section
0.610 m², Medium (>0.1 m² and < 1m²)

Expand to show TLE details & history

TLE from 9 hours ago
0 THOR ABLESTAR DEB
1  1425U 65048C   25128.97936997  .00000057  00000-0  75620-4 0  9998
2  1425  89.8807 289.8337 0072241 312.3182 161.5113 13.48916335946404
Epoch: 2025-05-08T23:30Z
Definitive object data (Epoch: 2025-05-08T23:30:17.565Z)
Latitude
65.98896°
Longitude
-110.04804°
Altitude
1,138.859 km
Speed
7.264 km/s
True Right ascension
07h 18m 16s
True Declination
65° 52' 03"
Sunlit
Object was in daylight at TLE epoch
Visualization TLE readout
Latitude
-28.10017°
Longitude
-109.7229°
Altitude
1,098.831 km
Speed
7.296 km/s
Apparent Right ascension
06h 21m 09s
Apparent Declination
-34° 33' 57"
Sunlit
Object is in daylight
Visualization observer readout
Local Sidereal Time
17:01:44
Azimuth
282.467° WNW
Elevation
-73.355°
Doppler factor
1
Orbital elements
Apogee altitude
1,127.129 km
Perigee altitude
1,019.469 km
Semi-major axis
7,451.436 km
Eccentricity
0.0072241
Inclination
89.8807°
RAAN
289.8337°
Arg. of periapsis
312.3182°
True anomaly
161.77159°
Mean anomaly
161.5113°
Eccentric anomaly
161.64166°
Mean motion
3.3743 °/min
BSTAR
0.00007562
Orbital period
106.69 mins
Loading maneuver chart data...
Loading SW <> Apogee altitude chart data...

THOR ABLESTAR DEB Visibility forecast

Observer location: undefined°, undefined°

Span
Click to sort rows by Start time (UTC) header in descending order
Start Az.
Max El. time (UTC)
Max El. Az.
Max El.
End time (UTC)
End Az.
9 mins2025-05-09 09:45:30.623Z117.623° SE2025-05-09 09:49:30.623Z77.162° E20.788°2025-05-09 09:54:30.623Z26.984° NE
11 mins2025-05-09 11:30:30.623Z195.27° SSW2025-05-09 11:35:30.623Z259.786° W40.283°2025-05-09 11:41:30.623Z348.104° N
12 mins2025-05-09 22:41:30.623Z11.316° NNE2025-05-09 22:46:30.623Z77.78° E42.074°2025-05-09 22:53:30.623Z171.277° S
8 mins2025-05-10 00:29:30.623Z320.623° NNW2025-05-10 00:32:30.623Z289.214° WNW20.111°2025-05-10 00:37:30.623Z241.783° WSW
|